User: anonymous   Login
Location: Unspecified
(0.0000°N, 0.0000°E)
Time: 01:10:03
(UTC+00:00)
Language:

STARLINK-34164 - Orbit

View from above orbital plane
View from above orbital plane
View from above satellite
View from above satellite

Ground track
Ground track

The orbit is defined by the following mean orbital elements,

1 64177U          26145.24821508 +.00000000 +00000-0 +47270-3 0 00009
2 64177  53.1610  95.7351 0001592  72.7756 287.3419 15.30207218    07
Epoch (UTC): 25 May 2026 05:57:25
Eccentricity: 0.0001592
inclination: 53.1610°
perigee height: 474 km
apogee height: 476 km
right ascension of ascending node: 95.7351°
argument of perigee: 72.7756°
revolutions per day: 15.30207218
mean anomaly at epoch: 287.3419°

The dashed part of the orbit path shows where the satellite is in the earth's shadow,  

DLR